www.pogodaiklimat.ru

Погода и климат >> Архив погоды >> Россия >> Кемеровская область >> Барзас


ПОГОДА в Барзасе

  • Прогноз погоды в Барзасе
  • Монитор погоды в Барзасе

АРХИВ ПОГОДЫ в Барзасе

Время (UTC), дата Ветер
(напр.,м/с)
 
Видим.   Явления Облачность Т
(С)
Тd
(С)
f
(%)
Тe
(С)
Тes
(С)
Комфортность P
(гПа)
Po
(гПа)
Тmin
(С)
Tmax
(С)
R
(мм)
R24
(мм)
S
(см)
15 14.07 С 2 10 км ясно +20.6 +11.8 57 +23 +23 комфорт 1013.5 989.3
18 14.07 штиль 0 10 км ясно +13.4 +12.1 92 +13 +13 1012.8 988.0
21 14.07 штиль 0 1000 м дымка 1 балл +10.6 +10.0 96 +10 +10 1013.0 988.0
00 15.07 СВ 1 10 км ясно +13.2 +12.1 93 +13 +15 1011.0 986.3 +9.4
03 15.07 СВ 3 50 км 2 балла +19.3 +9.5 53 +20 +27 1010.9 986.7
06 15.07 С 5-10
{10}
50 км 8/8 600 м
[Cu med, cong]
+20.0 +9.4 50 +21 +23 комфорт 1009.4 985.3
09 15.07 С 4 50 км 9 баллов +20.6 +9.8 50 +22 +23 комфорт 1009.4 985.3
12 15.07 СВ 6-10
{11}
50 км 4/4 1000 м
[Cu hum]
+20.9 +9.9 49 +22 +23 комфорт 1008.8 984.8 +21.4
15 15.07 С 2 10 км 9 баллов +17.6 +12.5 72 +18 +18 1011.1 986.7
18 15.07 С 2 10 км 9 баллов +14.8 +11.9 83 +14 +14 1009.9 985.3
21 15.07 штиль 0 10 км 9 баллов +13.1 +12.0 93 +13 +13 1008.7 984.0
00 16.07 ЮВ 1 20 км 9/8 600 м
[Cb cap Ac trans]
+13.6 +12.5 93 +14 +14 1007.2 982.6 +12.7 0.0
03 16.07 С 2 50 км 10 баллов +17.3 +14.0 81 +18 +18 1007.0 982.7
06 16.07 С 1 50 км 10 баллов +18.2 +13.9 76 +20 +20 1005.5 981.3
09 16.07 штиль 0 10 км слаб. ливневой дождь 10 баллов +17.2 +15.7 91 +17 +17 1005.5 981.3
12 16.07 штиль 0 50 км гроза без осадков {ливн. осадки} 9/8 600 м
[Cb cap Ac lent]
+16.8 +14.4 86 +17 +17 1004.7 980.5 +20.9 2
15 16.07 С 1 10 км 7 баллов +15.4 +14.6 95 +16 +16 1005.7 981.3
18 16.07 штиль 0 10 км 9 баллов +14.8 +14.2 96 +14 +14 1005.7 981.3
21 16.07 СВ 1 4000 м дымка 6 баллов +13.6 +13.0 96 +14 +14 1005.9 981.3
00 17.07 С 1 20 км в посл. час ливневой дождь 9/9 600 м
[Cb cap]
+14.0 +13.4 96 +14 +14 1003.8 979.4 +13.4 0.4
03 17.07 В 2 20 км 9 баллов +16.0 +14.2 89 +16 +17 1005.6 981.3
06 17.07 В 3 20 км в посл. час ливневой дождь 10 баллов +19.9 +15.3 75 +22 +22 комфорт 1004.0 980.0
12 17.07 ЮВ 2 20 км слаб. ливневой дождь {морось} 9/9 300 м
[Cb cap]
+18.9 +16.1 84 +21 +21 комфорт 1004.5 980.5 +20.0 3
15 17.07 штиль 0 10 км 7 баллов +17.3 +15.8 91 +17 +17 1005.5 981.3
18 17.07 штиль 0 10 км 1 балл +14.4 +13.8 96 +14 +14 1005.8 981.3
21 17.07 Ю 1 2000 м дымка 1 балл +13.9 +13.4 97 +14 +14 1005.8 981.3
00 18.07 СВ 1 500 м туман 3/0
[Ac lent]
+12.0 +11.5 97 +12 +13 1004.9 980.3 +10.5 0.3
03 18.07 штиль 0 10 км 7 баллов +20.5 +16.3 77 +23 +27 комфорт 1005.2 981.3
06 18.07 штиль 0 50 км в посл. час ливневой дождь 9 баллов +21.6 +15.2 67 +25 +27 комфорт 1003.8 980.0
09 18.07 СВ 2 4000 м гроза, ливневой дождь 10 баллов +18.9 +17.7 93 +21 +21 комфорт 1005.4 981.3
12 18.07 штиль 0 10 км слаб. ливневой дождь {гроза} 9/9 600 м
[Cb cap]
+20.1 +17.4 84 +23 +23 комфорт 1003.8 979.9 +22.1 2
15 18.07 штиль 0 10 км 9 баллов +18.3 +17.3 94 +19 +19 1005.4 981.3
18 18.07 штиль 0 4000 м дымка 9 баллов +16.4 +15.9 97 +16 +16 1005.6 981.3
21 18.07 Ю 1 10 км туман 10 баллов +16.2 +15.7 97 +17 +17 1005.6 981.3
00 19.07 ЮВ 2 500 м туман 10/0
[As op]
+16.2 +15.7 97 +16 +16 1005.7 981.4 +16.0 0.0
03 19.07 ЮВ 2 4000 м дымка 10 баллов +17.2 +16.2 94 +18 +18 1007.0 982.7
06 19.07 ЮВ 2 20 км 10 баллов +19.0 +16.0 83 +21 +21 комфорт 1006.8 982.7
09 19.07 штиль 0 50 км 9 баллов +22.9 +14.7 60 +27 +28 душно 1006.5 982.7
12 19.07 В 1 20 км {ливн. осадки} 9/8 600 м
[Cb cap Ac trans]
+22.8 +15.6 64 +27 +27 душно 1005.5 981.7 +24.8 0.0
15 19.07 ЮЗ 1 10 км 5 баллов +19.1 +16.5 85 +22 +22 комфорт 1008.1 984.0
18 19.07 штиль 0 10 км 4 балла +16.0 +15.4 96 +16 +16 1008.4 984.0
21 19.07 штиль 0 4000 м дымка 7 баллов +14.9 +14.4 97 +15 +15 1008.5 984.0
00 20.07 С 1 500 м туман 9/8 600 м
[Cb cap Ci fib]
+15.6 +15.1 97 +16 +16 1007.2 982.8 +14.5
03 20.07 С 3 10 км 10 баллов +18.2 +16.9 92 +19 +19 1008.2 984.0
06 20.07 СВ 5 20 км 7 баллов +22.5 +10.9 48 +25 +27 комфорт 1007.9 984.0
09 20.07 СВ 4 20 км 9 баллов +23.8 +9.4 40 +25 +25 комфорт 1007.8 984.0
12 20.07 С 3 20 км 3/0
[Ci fib]
+21.8 +10.1 47 +23 +25 комфорт 1007.5 983.6 +23.8
15 20.07 СВ 2 4000 м мгла 4 балла +17.4 +12.3 72 +18 +18 1009.6 985.3
18 20.07 С 2 4000 м мгла 2 балла +13.6 +10.2 80 +13 +13 1010.0 985.3
21 20.07 штиль 0 4000 м дымка ясно +9.2 +8.4 95 +8 +8 1009.1 984.0
00 21.07 СВ 1 2000 м дымка {туман} 3/0
[Ci fib]
+10.5 +10.0 97 +10 +11 1008.2 983.4 +8.0
03 21.07 СВ 1 4000 м мгла ясно +13.6 +8.9 73 +14 +24 1008.7 984.0
06 21.07 СЗ 2 4000 м мгла ясно +17.1 +8.0 55 +17 +32 опасность
простуды
1008.4 984.0
09 21.07 ЮЗ 2 4000 м мгла 5 баллов +19.0 +7.7 48 +20 +25 1008.2 984.0

 

Местоположение метеостанции Барзас (Кемеровская область, Россия): широта 55.70 долгота 86.27 высота над уровнем моря 209 м.

В архиве по умолчанию представлена погода в Барзасе за последнюю неделю. Архивные данные за месяц целиком и за предыдущие месяцы, начиная с января 2011 года, Вы можете получить, выбрав интересующий диапазон дат из раскрывающегося списка и нажав кнопку "Ввод!".


*Определитесь, кто Вы:
робот инопланетянин человек

Внимание! Время в таблицах - всемирное. Для получения местного времени необходимо прибавить поправку, которая равна 7 ч.

Смотрите также архив погоды в соседних городах и на ближайших метеорологических станциях:

Погода в Кемерово АМС (Кемеровская область, Россия) (34 км)
Погода в Кемерово (Кемеровская область, Россия) (50 км)
Погода в Яе (Кемеровская область, Россия) (57 км)
Погода в Тайге (Кемеровская область, Россия) (58 км)
Погода в Топках (Кемеровская область, Россия) (64 км)
Погода в Крапивино (Кемеровская область, Россия) (85 км)
Погода в Юрге (Кемеровская область, Россия) (93 км)
Погода в Промышленной (Кемеровская область, Россия) (98 км)
Погода в Мариинске (Кемеровская область, Россия) (103 км)
Погода в Центральном Руднике (Кемеровская область, Россия) (103 км)

Пояснения к столбцам:

Ветер - указаны скорость ветра в м/с - средняя за 10 мин, порывы в срок и между сроками (в фигурных скобках) и направление, откуда дует ветер: С - северный, СВ - северо-восточный, В - восточный, ЮВ - юго-восточный, Ю - южный, ЮЗ - юго-западный, З - западный, СЗ - северо-западный.
Видимость - горизонтальная дальность видимости в метрах или километрах. При видимости от 1 до 10 км при отсутствии осадков обычно наблюдается дымка, при ухудшении видимости до 1 км и менее - туман. В сухую погоду видимость может ухудшаться дымом, пылью или мглою.
Явления - указаны атмосферные явления, наблюдавшиеся в срок или в последний час перед сроком; фигурными скобками обозначены явления, наблюдавшиеся между сроками (за 1-3 часа до срока); квадратными скобками обозначены град или гололедные отложения с указанием их диаметра в мм.
Облачность - указаны через наклонную черту общая и нижняя облачность в баллах и высота нижней границы облаков в метрах; квадратными скобками обозначены формы облаков: Ci - перистые, Cs - перисто-слоистые, Cc - перисто-кучевые, Ac - высококучевые, As - высокослоистые, Sc - слоисто-кучевые, Ns - слоисто-дождевые, Cu - кучевые, Cb - кучево-дождевые. Подробнее классификацию облаков см. в Атласе облаков (PDF).
T - Температура воздуха - температура, измеренная на высоте 2 м над землей.
Td - Температура точки росы - температура, при понижении до которой содержащийся в воздухе водяной пар достигнет насыщения.
f - Относительная влажность воздуха - влажноcть воздуха, измеренная на высоте 2 м над землей.
Te - Эффективная температура - температура, которую ощущает одетый по сезону человек в тени. Характеристика душности погоды. При расчете учитывается влияние влажности воздуха и скорости ветра на теплоощущения человека.
Tes - Эффективная температура на солнце - температура, которую ощущает человек, с поправкой на солнечный нагрев. Характеристика знойности погоды. Зависит от высоты солнца над горизонтом, облачности и скорости ветра. Ночью, в пасмурную погоду, а также при ветре 12 м/с и более поправка равна нулю.
P - Атмосферное давление - приведенное к уровню моря атмосферное давление.
Po - Атмосферное давление - измеренное на уровне метеостанции атмосферное давление.
Tmin - Минимальная температура - минимум температуры воздуха на высоте 2 м над землей.
Tmax - Максимальная температура - максимум температуры воздуха на высоте 2 м над землей.
R - Количество осадков - Количество выпавших осадков за период времени, мм. При наведении курсора мыши на число - период времени, за который выпало указанное количество осадков.
R24 - Количество осадков - Количество выпавших осадков за 24 часа, мм.
S - Снежный покров - Высота снежного покрова, см. При наведении курсора мыши на число - состояние снежного покрова и степень покрытия местности в баллах.